User: anonymous   Login
Location: Eckley
(40.9930°N, 75.8630°W)
Time: 16:02:54
(UTC-04:00)
Language:

Cosmos 2221 Rocket - Orbit

View from above orbital plane
View from above orbital plane
View from above satellite
View from above satellite

Ground track
Ground track

The orbit data is extracted from the following two-line orbital elements,

1 22237U 92080B   15210.53700939  .00000127  00000-0  14426-4 0  9991
2 22237 082.5103 038.2648 0018424 299.5290 084.2517 14.78162535221704
Epoch (UTC): 29 July 2015 12:53:17
Eccentricity: 0.0018424
inclination: 82.5103°
perigee height: 622 km
apogee height: 648 km
right ascension of ascending node: 38.2648°
argument of perigee: 299.5290°
revolutions per day: 14.78162535
mean anomaly at epoch: 84.2517°
orbit number at epoch: 22170

The dashed part of the orbit path shows where the satellite is in the earth's shadow,  

DLR